START_TIME,STEP,MOV.,M29,t_acc.,H22,t_acc.,H26,t_acc.,H30,t_acc.
1979-07-12 06:00:32.300 ,1,1,0.,24.0,0.,24.0,0.,24.0,0.,24.0
1979-07-12 06:00:56.300 ,2,1,0.,24.0,0.,24.0,0.,24.0,0.,24.0
1979-07-12 06:01:20.300 ,6,1,0.,24.0,0.,24.0,0.,24.0,0.,24.0
1979-07-12 06:01:44.300 ,5,1,0.,24.0,0.,24.0,0.,24.0,0.,24.0
1979-07-12 06:02:08.300 ,1,1,0.,24.0,0.,24.0,0.,24.0,0.,24.0
1979-07-12 06:02:32.300 ,2,1,0.,24.0,0.,24.0,0.,24.0,0.,24.0
1979-07-12 06:02:56.300 ,6,1,0.,24.0,0.,24.0,0.,24.0,0.,24.0
1979-07-12 06:03:20.300 ,5,1,0.,24.0,0.,24.0,0.,24.0,0.,24.0
1979-07-12 06:03:44.300 ,1,1,0.,24.0,0.,24.0,0.,24.0,0.,24.0
1979-07-12 06:04:08.300 ,2,1,0.,24.0,0.,24.0,0.,24.0,0.,24.0
1979-07-12 06:04:32.300 ,6,1,0.,24.0,0.,24.0,0.,24.0,0.,24.0
1979-07-12 06:04:56.300 ,5,1,0.,24.0,0.,24.0,0.,24.0,0.,24.0
1979-07-12 06:05:20.300 ,1,1,0.,24.0,0.,24.0,0.,24.0,0.,24.0
1979-07-12 06:05:44.300 ,0,0,0.,24.0,0.,24.0,0.,24.0,0.,24.0
1979-07-12 06:06:08.300 ,0,0,0.,24.0,0.,24.0,0.,24.0,0.,24.0
1979-07-12 06:06:32.300 ,5,1,0.,24.0,0.,24.0,0.,24.0,0.,24.0
1979-07-12 06:06:56.300 ,5,0,0.,24.0,0.,24.0,0.,24.0,0.,24.0
1979-07-12 06:07:20.300 ,4,1,0.,24.0,0.,24.0,0.,24.0,0.,24.0
1979-07-12 06:07:44.300 ,4,0,0.,24.0,0.,24.0,0.,24.0,0.,24.0
1979-07-12 06:08:08.300 ,3,1,0.,24.0,0.,24.0,0.,24.0,0.,24.0
1979-07-12 06:08:32.300 ,3,0,0.,24.0,0.,24.0,0.,24.0,0.,24.0
1979-07-12 06:08:56.300 ,2,1,0.,24.0,0.,24.0,0.,24.0,0.,24.0
1979-07-12 06:09:20.300 ,2,0,0.,24.0,0.,24.0,0.,24.0,0.,24.0
1979-07-12 06:09:44.300 ,1,1,0.,24.0,0.,24.0,0.,24.0,0.,24.0
1979-07-12 06:10:08.300 ,1,0,0.,24.0,0.,24.0,0.,24.0,0.,24.0
1979-07-12 06:10:32.300 ,0,1,0.,24.0,0.,24.0,0.,24.0,0.,24.0
1979-07-12 06:10:56.300 ,0,0,0.,24.0,0.,24.0,0.,24.0,0.,24.0
1979-07-12 06:11:20.300 ,0,1,0.,24.0,0.,24.0,0.,24.0,0.,24.0
1979-07-12 06:11:44.300 ,0,0,0.,24.0,0.,24.0,0.,24.0,0.,24.0
1979-07-12 06:12:08.300 ,1,1,0.,24.0,0.,24.0,0.,24.0,0.,24.0
1979-07-12 06:12:32.300 ,1,0,0.,24.0,0.,24.0,0.,24.0,0.,24.0
1979-07-12 06:12:56.300 ,2,1,0.,24.0,0.,24.0,0.,24.0,0.,24.0
1979-07-12 06:13:20.300 ,2,0,0.,24.0,0.,24.0,0.,24.0,0.,24.0
1979-07-12 06:13:44.300 ,3,1,0.,24.0,0.,24.0,0.,24.0,0.,24.0
1979-07-12 06:14:08.300 ,3,0,0.,24.0,0.,24.0,0.,24.0,0.,24.0
1979-07-12 06:14:32.300 ,4,1,0.,24.0,0.,24.0,0.,24.0,0.,24.0
1979-07-12 06:14:56.300 ,4,0,0.,24.0,0.,24.0,0.,24.0,0.,24.0
1979-07-12 06:15:20.300 ,5,1,0.,24.0,0.,24.0,0.,24.0,0.,24.0
1979-07-12 06:15:44.300 ,5,0,0.,24.0,0.,24.0,0.,24.0,0.,24.0
1979-07-12 06:16:08.300 ,6,1,0.,24.0,0.,24.0,0.,24.0,0.,24.0
1979-07-12 06:16:32.300 ,6,0,0.,24.0,0.,24.0,0.,24.0,0.,24.0
1979-07-12 06:16:56.300 ,7,1,0.,24.0,0.,24.0,0.,24.0,0.,24.0
1979-07-12 06:17:20.300 ,7,0,0.,24.0,0.,24.0,0.,24.0,0.,24.0
1979-07-12 06:17:44.300 ,7,1,0.,24.0,0.,24.0,0.,24.0,0.,24.0
1979-07-12 06:18:08.300 ,7,0,0.,24.0,0.,24.0,0.,24.0,0.,24.0
1979-07-12 06:18:32.300 ,6,1,0.,24.0,0.,24.0,0.,24.0,0.,24.0
1979-07-12 06:18:56.300 ,6,0,0.,24.0,0.,24.0,0.,24.0,0.,24.0
1979-07-12 06:19:20.300 ,5,1,0.,24.0,0.,24.0,0.,24.0,0.,24.0
1979-07-12 06:19:44.300 ,5,0,0.,24.0,0.,24.0,0.,24.0,0.,24.0
1979-07-12 06:20:08.300 ,4,1,0.,24.0,0.,24.0,0.,24.0,0.,24.0
1979-07-12 06:20:32.300 ,4,0,0.,24.0,0.,24.0,0.,24.0,0.,24.0
1979-07-12 06:20:56.300 ,3,1,0.,24.0,0.,24.0,0.,24.0,0.,24.0
1979-07-12 06:21:20.300 ,3,0,0.,24.0,0.,24.0,0.,24.0,0.,24.0
1979-07-12 06:21:44.300 ,2,1,0.,24.0,0.,24.0,0.,24.0,0.,24.0
1979-07-12 06:22:08.300 ,2,0,0.,24.0,0.,24.0,0.,24.0,0.,24.0
1979-07-12 06:22:32.300 ,1,1,0.,24.0,0.,24.0,0.,24.0,0.,24.0
1979-07-12 06:22:56.300 ,1,0,0.,24.0,0.,24.0,0.,24.0,0.,24.0
1979-07-12 06:23:20.300 ,0,1,0.,24.0,0.,24.0,0.,24.0,0.,24.0
1979-07-12 06:23:44.300 ,0,0,0.,24.0,0.,24.0,0.,24.0,0.,24.0
1979-07-12 06:24:08.300 ,0,1,0.,24.0,0.,24.0,0.,24.0,0.,24.0
1979-07-12 06:24:32.300 ,0,0,0.,24.0,0.,24.0,0.,24.0,0.,24.0
1979-07-12 06:24:56.300 ,1,1,0.,24.0,0.,24.0,0.,24.0,0.,24.0
1979-07-12 06:25:20.300 ,1,0,0.,24.0,0.,24.0,0.,24.0,0.,24.0
1979-07-12 06:25:44.300 ,2,1,0.,24.0,0.,24.0,0.,24.0,0.,24.0
1979-07-12 06:26:08.300 ,2,0,0.,24.0,0.,24.0,0.,24.0,0.,24.0
1979-07-12 06:26:32.300 ,3,1,0.,24.0,0.,24.0,0.,24.0,0.,24.0
1979-07-12 06:26:56.300 ,3,0,0.,24.0,0.,24.0,0.,24.0,0.,24.0
1979-07-12 06:27:20.300 ,4,1,0.,24.0,0.,24.0,0.,24.0,0.,24.0
1979-07-12 06:27:44.300 ,4,0,0.,24.0,0.,24.0,0.,24.0,0.,24.0
1979-07-12 06:28:08.300 ,5,1,0.,24.0,0.,24.0,0.,24.0,0.,24.0
1979-07-12 06:28:32.300 ,5,0,0.,24.0,0.,24.0,0.,24.0,0.,24.0
1979-07-12 06:28:56.300 ,6,1,0.,24.0,0.,24.0,0.,24.0,0.,24.0
1979-07-12 06:29:20.300 ,6,0,0.,24.0,0.,24.0,0.,24.0,0.,24.0
1979-07-12 06:29:44.300 ,7,1,0.,24.0,0.,24.0,0.,24.0,0.,24.0
1979-07-12 06:30:08.300 ,7,0,0.,24.0,0.,24.0,0.,24.0,0.,24.0
1979-07-12 06:30:32.300 ,7,1,0.,24.0,0.,24.0,0.,24.0,0.,24.0
1979-07-12 06:30:56.300 ,7,0,0.,24.0,0.,24.0,0.,24.0,0.,24.0
1979-07-12 06:31:20.300 ,6,1,0.,24.0,0.,24.0,0.,24.0,0.,24.0
1979-07-12 06:31:44.300 ,6,0,0.,24.0,0.,24.0,0.,24.0,0.,24.0
1979-07-12 06:32:08.300 ,5,1,0.,24.0,0.,24.0,0.,24.0,0.,24.0
1979-07-12 06:32:32.300 ,5,0,0.,24.0,0.,24.0,0.,24.0,0.,24.0
1979-07-12 06:32:56.300 ,4,1,0.,24.0,0.,24.0,0.,24.0,0.,24.0
1979-07-12 06:33:20.300 ,4,0,0.,24.0,0.,24.0,0.,24.0,0.,24.0
1979-07-12 06:33:44.300 ,3,1,0.,24.0,0.,24.0,0.,24.0,0.,24.0
1979-07-12 06:34:08.300 ,3,0,0.,24.0,0.,24.0,0.,24.0,0.,24.0
1979-07-12 06:34:32.300 ,2,1,0.,24.0,0.,24.0,0.,24.0,0.,24.0
1979-07-12 06:34:56.300 ,2,0,0.,24.0,0.,24.0,0.,24.0,0.,24.0
1979-07-12 06:35:20.300 ,1,1,0.,24.0,0.,24.0,0.,24.0,0.,24.0
1979-07-12 06:35:44.300 ,1,0,0.,24.0,0.,24.0,0.,24.0,0.,24.0
1979-07-12 06:36:08.300 ,0,1,0.,24.0,0.,24.0,0.,24.0,0.,24.0
1979-07-12 06:36:32.300 ,0,0,0.,24.0,0.,24.0,0.,24.0,0.,24.0
1979-07-12 06:36:56.300 ,0,1,0.,24.0,0.,24.0,0.,24.0,0.,24.0
1979-07-12 06:37:20.300 ,0,0,0.,24.0,0.,24.0,0.,24.0,0.,24.0
1979-07-12 06:37:44.300 ,1,1,0.,24.0,0.,24.0,0.,24.0,0.,24.0
1979-07-12 06:38:08.300 ,1,0,0.,24.0,0.,24.0,0.,24.0,0.,24.0
1979-07-12 06:38:32.300 ,2,1,0.,24.0,0.,24.0,0.,24.0,0.,24.0
1979-07-12 06:38:56.300 ,2,0,0.,24.0,0.,24.0,0.,24.0,0.,24.0
1979-07-12 06:39:20.300 ,3,1,0.,24.0,0.,24.0,0.,24.0,0.,24.0
1979-07-12 06:39:44.300 ,3,0,0.,24.0,0.,24.0,0.,24.0,0.,24.0
1979-07-12 06:40:08.300 ,4,1,0.,24.0,0.,24.0,0.,24.0,0.,24.0
1979-07-12 06:40:32.300 ,4,0,0.,24.0,0.,24.0,0.,24.0,0.,24.0
1979-07-12 06:40:56.300 ,5,1,0.,24.0,0.,24.0,0.,24.0,0.,24.0
1979-07-12 06:41:20.300 ,5,0,0.,24.0,0.,24.0,0.,24.0,0.,24.0
1979-07-12 06:41:44.300 ,6,1,0.,24.0,0.,24.0,0.,24.0,0.,24.0
1979-07-12 06:42:08.300 ,6,0,0.,24.0,0.,24.0,0.,24.0,0.,24.0
1979-07-12 06:42:32.300 ,7,0,0.,24.0,0.,24.0,0.,24.0,0.,24.0
1979-07-12 06:42:56.300 ,7,0,0.,24.0,0.,24.0,0.,24.0,0.,24.0
1979-07-12 06:43:20.300 ,5,1,0.,24.0,0.,24.0,0.,24.0,0.,24.0
1979-07-12 06:43:44.300 ,1,1,0.,24.0,0.,24.0,0.,24.0,0.,24.0
1979-07-12 06:44:08.300 ,2,1,0.,24.0,0.,24.0,0.,24.0,0.,24.0
1979-07-12 06:44:32.300 ,6,1,0.,24.0,0.,24.0,0.,24.0,0.,24.0
1979-07-12 06:44:56.300 ,5,1,0.,24.0,0.,24.0,0.,24.0,0.,24.0
1979-07-12 06:45:20.300 ,1,1,0.,24.0,0.,24.0,0.,24.0,0.,24.0
1979-07-12 06:45:44.300 ,2,1,0.,24.0,0.,24.0,0.,24.0,0.,24.0
1979-07-12 06:46:08.300 ,6,1,0.,24.0,0.,24.0,0.,24.0,0.,24.0
1979-07-12 06:46:32.300 ,5,1,0.,24.0,0.,24.0,0.,24.0,0.,24.0
1979-07-12 06:46:56.300 ,1,1,0.,24.0,0.,24.0,0.,24.0,0.,24.0
1979-07-12 06:47:20.300 ,2,1,0.,24.0,0.,24.0,0.,24.0,0.,24.0
1979-07-12 06:47:44.300 ,6,1,0.,24.0,0.,24.0,0.,24.0,0.,24.0
1979-07-12 06:48:08.300 ,5,1,0.,24.0,0.,24.0,0.,24.0,0.,24.0
1979-07-12 06:48:32.300 ,1,1,0.,24.0,0.,24.0,0.,24.0,0.,24.0
1979-07-12 06:48:56.300 ,2,1,0.,24.0,0.,24.0,0.,24.0,0.,24.0
1979-07-12 06:49:20.300 ,6,1,0.,24.0,0.,24.0,0.,24.0,0.,24.0
1979-07-12 06:49:44.300 ,5,1,0.,24.0,0.,24.0,0.,24.0,0.,24.0
1979-07-12 06:50:08.300 ,1,1,0.,24.0,0.,24.0,0.,24.0,0.,24.0
1979-07-12 06:50:32.300 ,2,1,0.,24.0,0.,24.0,0.,24.0,0.,24.0
1979-07-12 06:50:56.300 ,6,1,0.,24.0,0.,24.0,0.,24.0,0.,24.0
1979-07-12 06:51:20.300 ,5,1,0.,24.0,0.,24.0,0.,24.0,0.,24.0
1979-07-12 06:51:44.300 ,1,1,0.,24.0,0.,24.0,0.,24.0,0.,24.0
1979-07-12 06:52:08.300 ,2,1,0.,24.0,0.,24.0,0.,24.0,0.,24.0
1979-07-12 06:52:32.300 ,6,1,0.,24.0,0.,24.0,0.,24.0,0.,24.0
1979-07-12 06:52:56.300 ,5,1,0.,24.0,0.,24.0,0.,24.0,0.,24.0
1979-07-12 06:53:20.300 ,0,0,,0,,0,,0,,0
1979-07-12 06:54:10.100 ,0,0,0.,24.0,0.,24.0,0.,24.0,0.,24.0
1979-07-12 06:54:32.300 ,5,1,0.,24.0,0.,24.0,0.,24.0,0.,24.0
1979-07-12 06:54:56.300 ,5,0,0.,24.0,0.,24.0,0.,24.0,0.,24.0
1979-07-12 06:55:20.300 ,4,1,0.,24.0,0.,24.0,0.,24.0,0.,24.0
1979-07-12 06:55:44.300 ,4,0,0.,24.0,0.,24.0,0.,24.0,0.,24.0
1979-07-12 06:56:08.300 ,3,1,0.,24.0,0.,24.0,0.,24.0,0.,24.0
1979-07-12 06:56:32.300 ,3,0,0.,24.0,0.,24.0,0.,24.0,0.,24.0
1979-07-12 06:56:56.300 ,2,1,0.,24.0,0.,24.0,0.,24.0,0.,24.0
1979-07-12 06:57:20.300 ,2,0,0.,24.0,0.,24.0,0.,24.0,0.,24.0
1979-07-12 06:57:44.300 ,1,1,0.,24.0,0.,24.0,0.,24.0,0.,24.0
1979-07-12 06:58:08.300 ,1,0,0.,24.0,0.,24.0,0.,24.0,0.,24.0
1979-07-12 06:58:32.300 ,0,1,0.,24.0,0.,24.0,0.,24.0,0.,24.0
1979-07-12 06:58:56.300 ,0,0,0.,24.0,0.,24.0,0.,24.0,0.,24.0
1979-07-12 06:59:20.300 ,0,1,0.,24.0,0.,24.0,0.,24.0,0.,24.0
1979-07-12 06:59:44.300 ,0,0,0.,24.0,0.,24.0,0.,24.0,0.,24.0
1979-07-12 07:00:08.300 ,1,1,0.,24.0,0.,24.0,0.,24.0,0.,24.0
1979-07-12 07:00:32.300 ,1,0,0.,24.0,0.,24.0,0.,24.0,0.,24.0
1979-07-12 07:00:56.300 ,2,1,0.,24.0,0.,24.0,0.,24.0,0.,24.0
1979-07-12 07:01:20.300 ,2,0,0.,24.0,0.,24.0,0.,24.0,0.,24.0
1979-07-12 07:01:44.300 ,3,1,0.,24.0,0.,24.0,0.,24.0,0.,24.0
1979-07-12 07:02:08.300 ,3,0,0.,24.0,0.,24.0,0.,24.0,0.,24.0
1979-07-12 07:02:32.300 ,4,1,0.,24.0,0.,24.0,0.,24.0,0.,24.0
1979-07-12 07:02:56.300 ,4,0,0.,24.0,0.,24.0,0.,24.0,0.,24.0
1979-07-12 07:03:20.300 ,5,1,0.,24.0,0.,24.0,0.,24.0,0.,24.0
1979-07-12 07:03:44.300 ,5,0,0.,24.0,0.,24.0,0.,24.0,0.,24.0
1979-07-12 07:04:08.300 ,6,1,0.,24.0,0.,24.0,0.,24.0,0.,24.0
1979-07-12 07:04:32.300 ,6,0,0.,24.0,0.,24.0,0.,24.0,0.,24.0
1979-07-12 07:04:56.300 ,7,1,0.,24.0,0.,24.0,0.,24.0,0.,24.0
1979-07-12 07:05:20.300 ,7,0,0.,24.0,0.,24.0,0.,24.0,0.,24.0
1979-07-12 07:05:44.290 ,7,1,0.,24.0,0.,24.0,0.,24.0,0.,24.0
1979-07-12 07:06:08.290 ,7,0,0.,24.0,0.,24.0,0.,24.0,0.,24.0
1979-07-12 07:06:32.290 ,6,1,0.,24.0,0.,24.0,0.,24.0,0.,24.0
1979-07-12 07:06:56.290 ,6,0,0.,24.0,0.,24.0,0.,24.0,0.,24.0
1979-07-12 07:07:20.290 ,5,1,0.,24.0,0.,24.0,0.,24.0,0.,24.0
1979-07-12 07:07:44.290 ,5,0,0.,24.0,0.,24.0,0.,24.0,0.,24.0
1979-07-12 07:08:08.290 ,4,1,0.,24.0,0.,24.0,0.,24.0,0.,24.0
1979-07-12 07:08:32.290 ,4,0,0.,24.0,0.,24.0,0.,24.0,0.,24.0
1979-07-12 07:08:56.300 ,3,1,0.,24.0,0.,24.0,0.,24.0,0.,24.0
1979-07-12 07:09:20.300 ,3,0,0.,24.0,0.,24.0,0.,24.0,0.,24.0
1979-07-12 07:09:44.300 ,2,1,0.,24.0,0.,24.0,0.,24.0,0.,24.0
1979-07-12 07:10:08.300 ,2,0,0.,24.0,0.,24.0,0.,24.0,0.,24.0
1979-07-12 07:10:32.300 ,1,1,0.,24.0,0.,24.0,0.,24.0,0.,24.0
1979-07-12 07:10:56.300 ,1,0,0.,24.0,0.,24.0,0.,24.0,0.,24.0
1979-07-12 07:11:20.300 ,0,1,0.,24.0,0.,24.0,0.,24.0,0.,24.0
1979-07-12 07:11:44.300 ,0,0,0.,24.0,0.,24.0,0.,24.0,0.,24.0
1979-07-12 07:12:08.300 ,0,1,0.,24.0,0.,24.0,0.,24.0,0.,24.0
1979-07-12 07:12:32.300 ,0,0,0.,24.0,0.,24.0,0.,24.0,0.,24.0
1979-07-12 07:12:56.300 ,1,1,0.,24.0,0.,24.0,0.,24.0,0.,24.0
1979-07-12 07:13:20.300 ,1,0,0.,24.0,0.,24.0,0.,24.0,0.,24.0
1979-07-12 07:13:44.300 ,2,1,0.,24.0,0.,24.0,0.,24.0,0.,24.0
1979-07-12 07:14:08.300 ,2,0,0.,24.0,0.,24.0,0.,24.0,0.,24.0
1979-07-12 07:14:32.300 ,3,1,0.,24.0,0.,24.0,0.,24.0,0.,24.0
1979-07-12 07:14:56.300 ,3,0,0.,24.0,0.,24.0,0.,24.0,0.,24.0
1979-07-12 07:15:20.300 ,4,1,0.,24.0,0.,24.0,0.,24.0,0.,24.0
1979-07-12 07:15:44.300 ,4,0,0.,24.0,0.,24.0,0.,24.0,0.,24.0
1979-07-12 07:16:08.300 ,5,1,0.,24.0,0.,24.0,0.,24.0,0.,24.0
1979-07-12 07:16:32.300 ,5,0,0.,24.0,0.,24.0,0.,24.0,0.,24.0
1979-07-12 07:16:56.300 ,6,1,0.,24.0,0.,24.0,0.,24.0,0.,24.0
1979-07-12 07:17:20.300 ,6,0,0.,24.0,0.,24.0,0.,24.0,0.,24.0
1979-07-12 07:17:44.300 ,7,1,0.,24.0,0.,24.0,0.,24.0,0.,24.0
1979-07-12 07:18:08.300 ,7,0,0.,24.0,0.,24.0,0.,24.0,0.,24.0
1979-07-12 07:18:32.300 ,7,1,0.,24.0,0.,24.0,0.,24.0,0.,24.0
1979-07-12 07:18:56.300 ,7,0,0.,24.0,0.,24.0,0.,24.0,0.,24.0
1979-07-12 07:19:20.300 ,6,1,0.,24.0,0.,24.0,0.,24.0,0.,24.0
1979-07-12 07:19:44.300 ,6,0,0.,24.0,0.,24.0,0.,24.0,0.,24.0
1979-07-12 07:20:08.300 ,5,1,0.,24.0,0.,24.0,0.,24.0,0.,24.0
1979-07-12 07:20:32.300 ,5,0,0.,24.0,0.,24.0,0.,24.0,0.,24.0
1979-07-12 07:20:56.300 ,4,1,0.,24.0,0.,24.0,0.,24.0,0.,24.0
1979-07-12 07:21:20.300 ,4,0,0.,24.0,0.,24.0,0.,24.0,0.,24.0
1979-07-12 07:21:44.300 ,3,1,0.,24.0,0.,24.0,0.,24.0,0.,24.0
1979-07-12 07:22:08.300 ,3,0,0.,24.0,0.,24.0,0.,24.0,0.,24.0
1979-07-12 07:22:32.300 ,2,1,0.,24.0,0.,24.0,0.,24.0,0.,24.0
1979-07-12 07:22:56.300 ,2,0,0.,24.0,0.,24.0,0.,24.0,0.,24.0
1979-07-12 07:23:20.300 ,1,1,0.,24.0,0.,24.0,0.,24.0,0.,24.0
1979-07-12 07:23:44.300 ,1,0,0.,24.0,0.,24.0,0.,24.0,0.,24.0
1979-07-12 07:24:08.300 ,0,1,0.,24.0,0.,24.0,0.,24.0,0.,24.0
1979-07-12 07:24:32.300 ,0,0,0.,24.0,0.,24.0,0.,24.0,0.,24.0
1979-07-12 07:24:56.300 ,0,1,0.,24.0,0.,24.0,0.,24.0,0.,24.0
1979-07-12 07:25:20.300 ,0,0,0.,24.0,0.,24.0,0.,24.0,0.,24.0
1979-07-12 07:25:44.300 ,1,1,0.,24.0,0.,24.0,0.,24.0,0.,24.0
1979-07-12 07:26:08.300 ,1,0,0.,24.0,0.,24.0,0.,24.0,0.,24.0
1979-07-12 07:26:32.300 ,2,1,0.,24.0,0.,24.0,0.,24.0,0.,24.0
1979-07-12 07:26:56.300 ,2,0,0.,24.0,0.,24.0,0.,24.0,0.,24.0
1979-07-12 07:27:20.300 ,3,1,0.,24.0,0.,24.0,0.,24.0,0.,24.0
1979-07-12 07:27:44.300 ,3,0,0.,24.0,0.,24.0,0.,24.0,0.,24.0
1979-07-12 07:28:08.300 ,4,1,0.,24.0,0.,24.0,0.,24.0,0.,24.0
1979-07-12 07:28:32.300 ,4,0,0.,24.0,0.,24.0,0.,24.0,0.,24.0
1979-07-12 07:28:56.300 ,5,1,0.,24.0,0.,24.0,0.,24.0,0.,24.0
1979-07-12 07:29:20.300 ,5,0,0.,24.0,0.,24.0,0.,24.0,0.,24.0
1979-07-12 07:29:44.300 ,6,1,0.,24.0,0.,24.0,0.,24.0,0.,24.0
1979-07-12 07:30:08.300 ,6,0,0.,24.0,0.,24.0,0.,24.0,0.,24.0
1979-07-12 07:30:32.300 ,7,0,0.,24.0,0.,24.0,0.,24.0,0.,24.0
1979-07-12 07:30:56.300 ,7,0,0.,24.0,0.,24.0,0.,24.0,0.,24.0
1979-07-12 07:31:20.300 ,5,1,0.,24.0,0.,24.0,0.,24.0,0.,24.0
1979-07-12 07:31:44.300 ,1,1,0.,24.0,0.,24.0,0.,24.0,0.,24.0
1979-07-12 07:32:08.290 ,2,1,0.,24.0,0.,24.0,0.,24.0,0.,24.0
1979-07-12 07:32:32.290 ,6,1,0.,24.0,0.,24.0,0.,24.0,0.,24.0
1979-07-12 07:32:56.290 ,5,1,0.,24.0,0.,24.0,0.,24.0,0.,24.0
1979-07-12 07:33:20.290 ,1,1,0.,24.0,0.,24.0,0.,24.0,0.,24.0
1979-07-12 07:33:44.290 ,2,1,0.,24.0,0.,24.0,0.,24.0,0.,24.0
1979-07-12 07:34:08.290 ,6,1,0.,24.0,0.,24.0,0.,24.0,0.,24.0
1979-07-12 07:34:32.290 ,5,1,0.,24.0,0.,24.0,0.,24.0,0.,24.0
1979-07-12 07:34:56.290 ,1,1,0.,24.0,0.,24.0,0.,24.0,0.,24.0
1979-07-12 07:35:20.290 ,2,1,0.,24.0,0.,24.0,0.,24.0,0.,24.0
1979-07-12 07:35:44.290 ,6,1,0.,24.0,0.,24.0,0.,24.0,0.,24.0
1979-07-12 07:36:08.290 ,5,1,0.,24.0,0.,24.0,0.,24.0,0.,24.0
1979-07-12 07:36:32.290 ,1,1,0.,24.0,0.,24.0,0.,24.0,0.,24.0
1979-07-12 07:36:56.290 ,2,1,0.,24.0,0.,24.0,0.,24.0,0.,24.0
1979-07-12 07:37:20.290 ,6,1,0.,24.0,0.,24.0,0.,24.0,0.,24.0
1979-07-12 07:37:44.290 ,5,1,0.,24.0,0.,24.0,0.,24.0,0.,24.0
1979-07-12 07:38:08.290 ,1,1,0.,24.0,0.,24.0,0.,24.0,0.,24.0
1979-07-12 07:38:32.290 ,2,1,0.,24.0,0.,24.0,0.,24.0,0.,24.0
1979-07-12 07:38:56.290 ,6,1,0.,24.0,0.,24.0,0.,24.0,0.,24.0
1979-07-12 07:39:20.290 ,5,1,0.,24.0,0.,24.0,0.,24.0,0.,24.0
1979-07-12 07:39:44.290 ,1,1,0.,24.0,0.,24.0,0.,24.0,0.,24.0
1979-07-12 07:40:08.290 ,2,1,0.,24.0,0.,24.0,0.,24.0,0.,24.0
1979-07-12 07:40:32.290 ,6,1,0.,24.0,0.,24.0,0.,24.0,0.,24.0
1979-07-12 07:40:56.290 ,5,1,0.,24.0,0.,24.0,0.,24.0,0.,24.0
1979-07-12 07:41:20.290 ,1,1,0.,24.0,0.,24.0,0.,24.0,0.,24.0
1979-07-12 07:41:44.290 ,0,0,0.,24.0,0.,24.0,0.,24.0,0.,24.0
1979-07-12 07:42:08.290 ,0,0,0.,24.0,0.,24.0,0.,24.0,0.,24.0
1979-07-12 07:42:32.290 ,5,1,0.,24.0,0.,24.0,0.,24.0,0.,24.0
1979-07-12 07:42:56.290 ,5,0,0.,24.0,0.,24.0,0.,24.0,0.,24.0
1979-07-12 07:43:20.290 ,4,1,0.,24.0,0.,24.0,0.,24.0,0.,24.0
1979-07-12 07:43:44.290 ,4,0,0.,24.0,0.,24.0,0.,24.0,0.,24.0
1979-07-12 07:44:08.290 ,3,1,0.,24.0,0.,24.0,0.,24.0,0.,24.0
1979-07-12 07:44:32.290 ,3,0,0.,24.0,0.,24.0,0.,24.0,0.,24.0
1979-07-12 07:44:56.290 ,2,1,0.,24.0,0.,24.0,0.,24.0,0.,24.0
1979-07-12 07:45:20.290 ,2,0,0.,24.0,0.,24.0,0.,24.0,0.,24.0
1979-07-12 07:45:44.290 ,1,1,0.,24.0,0.,24.0,0.,24.0,0.,24.0
1979-07-12 07:46:08.290 ,1,0,0.,24.0,0.,24.0,0.,24.0,0.,24.0
1979-07-12 07:46:32.290 ,0,1,0.,24.0,0.,24.0,0.,24.0,0.,24.0
1979-07-12 07:46:56.290 ,0,0,0.,24.0,0.,24.0,0.,24.0,0.,24.0
1979-07-12 07:47:20.290 ,0,1,0.,24.0,0.,24.0,0.,24.0,0.,24.0
1979-07-12 07:47:44.290 ,0,0,0.,24.0,0.,24.0,0.,24.0,0.,24.0
1979-07-12 07:48:08.290 ,1,1,0.,24.0,0.,24.0,0.,24.0,0.,24.0
1979-07-12 07:48:32.290 ,1,0,0.,24.0,0.,24.0,0.,24.0,0.,24.0
1979-07-12 07:48:56.290 ,2,1,0.,24.0,0.,24.0,0.,24.0,0.,24.0
1979-07-12 07:49:20.290 ,2,0,0.,24.0,0.,24.0,0.,24.0,0.,24.0
1979-07-12 07:49:44.290 ,3,1,0.,24.0,0.,24.0,0.,24.0,0.,24.0
1979-07-12 07:50:08.290 ,3,0,0.,24.0,0.,24.0,0.,24.0,0.,24.0
1979-07-12 07:50:32.290 ,4,1,0.,24.0,0.,24.0,0.,24.0,0.,24.0
1979-07-12 07:50:56.290 ,4,0,0.,24.0,0.,24.0,0.,24.0,0.,24.0
1979-07-12 07:51:20.290 ,5,1,0.,24.0,0.,24.0,0.,24.0,0.,24.0
1979-07-12 07:51:44.290 ,5,0,0.,24.0,0.,24.0,0.,24.0,0.,24.0
1979-07-12 07:52:08.290 ,6,1,0.,24.0,0.,24.0,0.,24.0,0.,24.0
1979-07-12 07:52:32.290 ,6,0,0.,24.0,0.,24.0,0.,24.0,0.,24.0
1979-07-12 07:52:56.290 ,7,1,0.,24.0,0.,24.0,0.,24.0,0.,24.0
1979-07-12 07:53:20.290 ,7,0,0.,24.0,0.,24.0,0.,24.0,0.,24.0
1979-07-12 07:53:44.290 ,7,1,0.,24.0,0.,24.0,0.,24.0,0.,24.0
1979-07-12 07:54:08.290 ,7,0,0.,24.0,0.,24.0,0.,24.0,0.,24.0
1979-07-12 07:54:32.290 ,6,1,0.,24.0,0.,24.0,0.,24.0,0.,24.0
1979-07-12 07:54:56.290 ,6,0,0.,24.0,0.,24.0,0.,24.0,0.,24.0
1979-07-12 07:55:20.290 ,5,1,0.,24.0,0.,24.0,0.,24.0,0.,24.0
1979-07-12 07:55:44.290 ,5,0,0.,24.0,0.,24.0,0.,24.0,0.,24.0
1979-07-12 07:56:08.290 ,4,1,0.,24.0,0.,24.0,0.,24.0,0.,24.0
1979-07-12 07:56:32.290 ,4,0,0.,24.0,0.,24.0,0.,24.0,0.,24.0
1979-07-12 07:56:56.290 ,3,1,0.,24.0,0.,24.0,0.,24.0,0.,24.0
1979-07-12 07:57:20.290 ,3,0,0.,24.0,0.,24.0,0.,24.0,0.,24.0
1979-07-12 07:57:44.290 ,2,1,0.,24.0,0.,24.0,0.,24.0,0.,24.0
1979-07-12 07:58:08.290 ,2,0,0.,24.0,0.,24.0,0.,24.0,0.,24.0
1979-07-12 07:58:32.290 ,1,1,0.,24.0,0.,24.0,0.,24.0,0.,24.0
1979-07-12 07:58:56.290 ,1,0,0.,24.0,0.,24.0,0.,24.0,0.,24.0
1979-07-12 07:59:20.290 ,0,1,0.,24.0,0.,24.0,0.,24.0,0.,24.0
1979-07-12 07:59:44.290 ,0,0,0.,24.0,0.,24.0,0.,24.0,0.,24.0
1979-07-12 08:00:08.290 ,0,1,0.,24.0,0.,24.0,0.,24.0,0.,24.0
1979-07-12 08:00:32.290 ,0,0,0.,24.0,0.,24.0,0.,24.0,0.,24.0
1979-07-12 08:00:56.290 ,1,1,0.,24.0,0.,24.0,0.,24.0,0.,24.0
1979-07-12 08:01:20.290 ,1,0,0.,24.0,0.,24.0,0.,24.0,0.,24.0
1979-07-12 08:01:44.290 ,2,1,0.,24.0,0.,24.0,0.,24.0,0.,24.0
1979-07-12 08:02:08.290 ,2,0,0.,24.0,0.,24.0,0.,24.0,0.,24.0
1979-07-12 08:02:32.290 ,3,1,0.,24.0,0.,24.0,0.,24.0,0.,24.0
1979-07-12 08:02:56.290 ,3,0,0.,24.0,0.,24.0,0.,24.0,0.,24.0
1979-07-12 08:03:20.290 ,4,1,0.,24.0,0.,24.0,0.,24.0,0.,24.0
1979-07-12 08:03:44.290 ,4,0,0.,24.0,0.,24.0,0.,24.0,0.,24.0
1979-07-12 08:04:08.290 ,5,1,0.,24.0,0.,24.0,0.,24.0,0.,24.0
1979-07-12 08:04:32.290 ,5,0,0.,24.0,0.,24.0,0.,24.0,0.,24.0
1979-07-12 08:04:56.290 ,6,1,0.,24.0,0.,24.0,0.,24.0,0.,24.0
1979-07-12 08:05:20.290 ,6,0,0.,24.0,0.,24.0,0.,24.0,0.,24.0
1979-07-12 08:05:44.290 ,7,1,0.,24.0,0.,24.0,0.,24.0,0.,24.0
1979-07-12 08:06:08.290 ,7,0,0.,24.0,0.,24.0,0.,24.0,0.,24.0
1979-07-12 08:06:32.290 ,7,1,0.,24.0,0.,24.0,0.,24.0,0.,24.0
1979-07-12 08:06:56.290 ,7,0,0.,24.0,0.,24.0,0.,24.0,0.,24.0
1979-07-12 08:07:20.290 ,6,1,0.,24.0,0.,24.0,0.,24.0,0.,24.0
1979-07-12 08:07:44.290 ,6,0,0.,24.0,0.,24.0,0.,24.0,0.,24.0
1979-07-12 08:08:08.290 ,5,1,0.,24.0,0.,24.0,0.,24.0,0.,24.0
1979-07-12 08:08:32.290 ,5,0,0.,24.0,0.,24.0,0.,24.0,0.,24.0
1979-07-12 08:08:56.290 ,4,1,0.,24.0,0.,24.0,0.,24.0,0.,24.0
1979-07-12 08:09:20.290 ,4,0,0.,24.0,0.,24.0,0.,24.0,0.,24.0
1979-07-12 08:09:44.290 ,3,1,0.,24.0,0.,24.0,0.,24.0,0.,24.0
1979-07-12 08:10:08.290 ,3,0,0.,24.0,0.,24.0,0.,24.0,0.,24.0
1979-07-12 08:10:32.290 ,2,1,0.,24.0,0.,24.0,0.,24.0,0.,24.0
1979-07-12 08:10:56.290 ,2,0,0.,24.0,0.,24.0,0.,24.0,0.,24.0
1979-07-12 08:11:20.290 ,1,1,0.,24.0,0.,24.0,0.,24.0,0.,24.0
1979-07-12 08:11:44.290 ,1,0,0.,24.0,0.,24.0,0.,24.0,0.,24.0
1979-07-12 08:12:08.290 ,0,1,0.,24.0,0.,24.0,0.,24.0,0.,24.0
1979-07-12 08:12:32.290 ,0,0,0.,24.0,0.,24.0,0.,24.0,0.,24.0
1979-07-12 08:12:56.290 ,0,1,0.,24.0,0.,24.0,0.,24.0,0.,24.0
1979-07-12 08:13:20.290 ,0,0,0.,24.0,0.,24.0,0.,24.0,0.,24.0
1979-07-12 08:13:44.290 ,1,1,0.,24.0,0.,24.0,0.,24.0,0.,24.0
1979-07-12 08:14:08.290 ,1,0,0.,24.0,0.,24.0,0.,24.0,0.,24.0
1979-07-12 08:14:32.290 ,2,1,0.,24.0,0.,24.0,0.,24.0,0.,24.0
1979-07-12 08:14:56.290 ,2,0,0.,24.0,0.,24.0,0.,24.0,0.,24.0
1979-07-12 08:15:20.290 ,3,1,0.,24.0,0.,24.0,0.,24.0,0.,24.0
1979-07-12 08:15:44.290 ,3,0,0.,24.0,0.,24.0,0.,24.0,0.,24.0
1979-07-12 08:16:08.290 ,4,1,0.,24.0,0.,24.0,0.,24.0,0.,24.0
1979-07-12 08:16:32.290 ,4,0,0.,24.0,0.,24.0,0.,24.0,0.,24.0
1979-07-12 08:16:56.290 ,5,1,0.,24.0,0.,24.0,0.,24.0,0.,24.0
1979-07-12 08:17:20.290 ,5,0,0.,24.0,0.,24.0,0.,24.0,0.,24.0
1979-07-12 08:17:44.290 ,6,1,0.,24.0,0.,24.0,0.,24.0,0.,24.0
1979-07-12 08:18:08.290 ,6,0,0.,24.0,0.,24.0,0.,24.0,0.,24.0
1979-07-12 08:18:32.290 ,7,0,0.,24.0,0.,24.0,0.,24.0,0.,24.0
1979-07-12 08:18:56.290 ,7,0,0.,24.0,0.,24.0,0.,24.0,0.,24.0
1979-07-12 08:19:20.290 ,5,1,0.,24.0,0.,24.0,0.,24.0,0.,24.0
1979-07-12 08:19:44.290 ,1,1,0.,24.0,0.,24.0,0.,24.0,0.,24.0
1979-07-12 08:20:08.290 ,2,1,0.,24.0,0.,24.0,0.,24.0,0.,24.0
1979-07-12 08:20:32.290 ,6,1,0.,24.0,0.,24.0,0.,24.0,0.,24.0
1979-07-12 08:20:56.290 ,5,1,0.,24.0,0.,24.0,0.,24.0,0.,24.0
1979-07-12 08:21:20.290 ,1,1,0.,24.0,0.,24.0,0.,24.0,0.,24.0
1979-07-12 08:21:44.290 ,2,1,0.,24.0,0.,24.0,0.,24.0,0.,24.0
1979-07-12 08:22:08.290 ,6,1,0.,24.0,0.,24.0,0.,24.0,0.,24.0
1979-07-12 08:22:32.290 ,5,1,0.,24.0,0.,24.0,0.,24.0,0.,24.0
1979-07-12 08:22:56.290 ,1,1,0.,24.0,0.,24.0,0.,24.0,0.,24.0
1979-07-12 08:23:20.290 ,2,1,0.,24.0,0.,24.0,0.,24.0,0.,24.0
1979-07-12 08:23:44.290 ,6,1,0.,24.0,0.,24.0,0.,24.0,0.,24.0
1979-07-12 08:24:08.290 ,5,1,0.,24.0,0.,24.0,0.,24.0,0.,24.0
1979-07-12 08:24:32.290 ,1,1,0.,24.0,0.,24.0,0.,24.0,0.,24.0
1979-07-12 08:24:56.290 ,2,1,0.,24.0,0.,24.0,0.,24.0,0.,24.0
1979-07-12 08:25:20.290 ,6,1,0.,24.0,0.,24.0,0.,24.0,0.,24.0
1979-07-12 08:25:44.290 ,5,1,0.,24.0,0.,24.0,0.,24.0,0.,24.0
1979-07-12 08:26:08.290 ,1,1,0.,24.0,0.,24.0,0.,24.0,0.,24.0
1979-07-12 08:26:32.290 ,2,1,0.,24.0,0.,24.0,0.,24.0,0.,24.0
1979-07-12 08:26:56.290 ,6,1,0.,24.0,0.,24.0,0.,24.0,0.,24.0
1979-07-12 08:27:20.290 ,5,1,0.,24.0,0.,24.0,0.,24.0,0.,24.0
1979-07-12 08:27:44.290 ,1,1,0.,24.0,0.,24.0,0.,24.0,0.,24.0
1979-07-12 08:28:08.290 ,2,1,0.,24.0,0.,24.0,0.,24.0,0.,24.0
1979-07-12 08:28:32.290 ,0,0,0.,24.0,0.,24.0,0.,24.0,0.,24.0
1979-07-12 08:28:56.290 ,0,0,,0,,0,,0,,0
1979-07-12 08:29:20.290 ,1,1,0.,24.0,0.,24.0,0.,24.0,0.,24.0
1979-07-12 08:29:44.290 ,0,0,,0,,0,,0,,0
1979-07-12 08:30:08.290 ,0,0,0.,24.0,0.,24.0,0.,24.0,0.,24.0
1979-07-12 08:30:32.290 ,5,1,0.,24.0,0.,24.0,0.,24.0,0.,24.0
1979-07-12 08:30:56.290 ,5,0,0.,24.0,0.,24.0,0.,24.0,0.,24.0
1979-07-12 08:31:20.290 ,4,1,0.,24.0,0.,24.0,0.,24.0,0.,24.0
1979-07-12 08:31:44.290 ,4,0,0.,24.0,0.,24.0,0.,24.0,0.,24.0
1979-07-12 08:32:08.290 ,3,1,0.,24.0,0.,24.0,0.,24.0,0.,24.0
1979-07-12 08:32:32.290 ,3,0,0.,24.0,0.,24.0,0.,24.0,0.,24.0
1979-07-12 08:32:56.290 ,2,0,,0,,0,,0,,0
1979-07-12 08:33:20.290 ,2,0,0.,24.0,0.,24.0,0.,24.0,0.,24.0
1979-07-12 08:33:44.290 ,1,1,0.,24.0,0.,24.0,0.,24.0,0.,24.0
1979-07-12 08:34:08.290 ,1,0,0.,24.0,0.,24.0,0.,24.0,0.,24.0
1979-07-12 08:34:32.290 ,0,1,0.,24.0,0.,24.0,0.,24.0,0.,24.0
1979-07-12 08:34:56.290 ,0,0,0.,24.0,0.,24.0,0.,24.0,0.,24.0
1979-07-12 08:35:20.290 ,0,1,0.,24.0,0.,24.0,0.,24.0,0.,24.0